Hourly Data Report for September 22, 2021

CARBERRY CS
MANITOBA
Current Station Operator: ECCC - MSC

49°54'20.900" N
99°21'26.800" W
383.50 m
5010547
71170
WZE

Download Data

Hourly Data (September 2021)
Hourly Data Report for September 22, 2021
TIME
LST
Temp Definition
°C
Dew Point Definition
°C
Rel Hum Definition
%
Precip. Amount Definition
mm

Wind Dir Definition
10's deg

Wind Spd Definition
km/h
Visibility Definition
km
Stn Press Definition
kPa
Hmdx Definition


Wind Chill Definition


Weather Definition


00:00 6.4 3.6 82 0.0 17 5   97.44     LegendNANA
01:00 5.7 3.4 85 0.0 16 5   97.43     LegendNANA
02:00 5.7 5.0 95 0.0 16 8   97.41     LegendNANA
03:00 5.8 4.3 90 0.0 16 9   97.39     LegendNANA
04:00 4.8 3.5 92 0.0 19 8   97.38     LegendNANA
05:00 4.8 3.6 92 0.0 18 7   97.33     LegendNANA
06:00 4.4 2.9 90 0.0 18 7   97.31     LegendNANA
07:00 5.6 3.4 85 0.0 17 9   97.28     LegendNANA
08:00 8.5 4.5 76 0.0 17 6   97.22     LegendNANA
09:00 12.2 4.7 60 0.0 20 7   97.21     LegendNANA
10:00 15.3 5.0 50 0.0 21 10   97.14     LegendNANA
11:00 18.0 6.6 47 0.0 18 12   97.08     LegendNANA
12:00 20.1 6.7 42 0.0 18 15   96.99     LegendNANA
13:00 21.7 5.3 34 0.0 18 15   96.92     LegendNANA
14:00 23.1 4.8 30 0.0 19 15   96.84     LegendNANA
15:00 24.1 4.4 28 0.0 18 19   96.77     LegendNANA
16:00 24.4 3.0 25 0.0 20 19   96.71     LegendNANA
17:00 23.6 4.5 29 0.0 18 21   96.66     LegendNANA
18:00 21.4 5.2 35 0.0 18 15   96.62     LegendNANA
19:00 18.5 5.6 43 0.0 16 16   96.56     LegendNANA
20:00 17.1 5.3 46 0.0 16 15   96.52     LegendNANA
21:00 16.7 5.1 46 0.0 17 15   96.51     LegendNANA
22:00 15.5 5.6 52 0.0 17 15   96.48     LegendNANA
23:00 15.1 5.7 53 0.0 17 17   96.41     LegendNANA

Notes on Data Quality.

Legend

  • E = Estimated
  • M = Missing
  • NA = Not Available*
  • [empty] = Indicates an unobserved value
Date modified: